Погода в Морогоро

Танзания     6°49′24″S   37°39′37″E
темп.,
°C
ветер,
м/с
пор.,
м/с
влажн.,
%
обл.,
%
осадки,
мм/ч
давл.,
гПа
погр.,
м
4 марта, чт
чт400:00+20св119669 0.0 101124
03:00+21ссв149481 0.0 1010325
06:00+21св0493100 0.0 1010303
09:00+23всв2385100 0.1 1012456
12:00+27в117095 0.3 1011710
15:00+28в117595 3.7 1008491
18:00+25вюв1184100 4.8 100830
21:00+22вюв1291100 5.6 101028
5 марта, пт
пт500:00+21св1397100 0.0 101088
03:00+21ссз1298100 0.0 1009184
06:00+20с1199100 0.0 101045
09:00+23св1192100 0.0 1013238
12:00+30ссв1166100 0.0 1010759
15:00+30в225984 0.2 10071391
18:00+25вюв2487100 4.8 1007149
21:00+22в3796100 14.1 1010261
6 марта, сб
сб600:00+22св1699100 1.9 1011306
03:00+22с1598100 2.3 1010387
06:00+21сз1199100 0.1 101185
09:00+22з1295100 0.1 1013163
12:00+26зсз2474100 0.0 1012488
15:00+29сз2358100 0.0 10081245
18:00+26ссз1176100 0.0 100724
21:00+23в1180100 0.1 101126
7 марта, вс
вс700:00+21ссв1196100 0.4 101124
03:00+21ссз1198100 1.7 101029
06:00+21з0198100 2.6 101127
09:00+23вюв1191100 3.6 1013303
12:00+26юв2381100 2.1 1011476
15:00+27вюв1178100 8.6 1008504
18:00+25вюв1288100 2.8 100725
21:00+22юв1289100 3.3 101025
8 марта, пн
пн800:00+21вюв1297100 0.2 101195
03:00+21ююв1198100 4.1 101061
06:00+21зюз1197100 6.2 101126
09:00+22в1198100 7.1 101389
12:00+22сз1196100 0.5 1011168
15:00+25ссв1185100 1.9 1007243
18:00+24ю1188100 3.1 100829
21:00+22юв019298 3.3 101123